TimeAST,TemperatureF,Dew PointF,Humidity,Sea Level PressureIn,VisibilityMPH,Wind Direction,Wind SpeedMPH,Gust SpeedMPH,PrecipitationIn,Events,Conditions,WindDirDegrees,DateUTC
12:00 AM,78.8,73.4,83,29.92,6.2,ENE,17.3,-,N/A,,Scattered Clouds,70,2014-02-20 04:00:00
1:00 AM,78.8,73.4,83,29.92,-9999.0,ENE,15.0,-,N/A,,Unknown,70,2014-02-20 05:00:00
2:00 AM,77.0,71.6,83,29.89,-9999.0,East,12.7,-,N/A,,Unknown,80,2014-02-20 06:00:00
3:00 AM,78.8,71.6,78,29.89,-9999.0,East,12.7,-,N/A,,Unknown,90,2014-02-20 07:00:00
5:00 AM,-9999,-9999,N/A,29.89,-9999.0,East,16.1,-,N/A,,Unknown,80,2014-02-20 09:00:00
6:00 AM,78.8,71.6,78,29.89,-9999.0,East,16.1,-,N/A,,Unknown,80,2014-02-20 10:00:00
7:00 AM,78.8,71.6,78,29.89,-9999.0,East,18.4,-,N/A,,Unknown,80,2014-02-20 11:00:00
8:00 AM,78.8,71.6,78,29.92,6.2,East,19.6,-,N/A,,Scattered Clouds,80,2014-02-20 12:00:00
10:00 AM,80.6,73.4,79,29.95,-9999.0,East,18.4,-,N/A,,Unknown,90,2014-02-20 14:00:00
11:00 AM,84.2,71.6,66,29.98,6.2,East,20.7,-,N/A,,Scattered Clouds,90,2014-02-20 15:00:00
12:00 PM,84.2,73.4,70,29.95,6.2,East,19.6,-,N/A,,Scattered Clouds,90,2014-02-20 16:00:00
1:00 PM,84.2,71.6,66,29.92,6.2,East,18.4,-,N/A,,Scattered Clouds,90,2014-02-20 17:00:00
2:00 PM,82.4,71.6,70,29.89,6.2,East,19.6,-,N/A,,Scattered Clouds,90,2014-02-20 18:00:00
3:00 PM,84.2,73.4,70,29.89,6.2,East,19.6,-,N/A,,Scattered Clouds,90,2014-02-20 19:00:00
4:00 PM,82.4,71.6,70,29.86,6.2,East,23.0,-,N/A,,Scattered Clouds,80,2014-02-20 20:00:00
5:00 PM,82.4,71.6,70,29.86,6.2,East,19.6,-,N/A,,Scattered Clouds,80,2014-02-20 21:00:00
6:00 PM,80.6,71.6,74,29.86,6.2,ENE,19.6,-,N/A,,Scattered Clouds,70,2014-02-20 22:00:00
7:00 PM,78.8,71.6,78,29.89,6.2,ENE,16.1,-,N/A,,Scattered Clouds,70,2014-02-20 23:00:00
8:00 PM,78.8,71.6,78,29.89,6.2,ENE,17.3,-,N/A,,Scattered Clouds,70,2014-02-21 00:00:00
9:00 PM,78.8,71.6,78,29.89,6.2,ENE,17.3,-,N/A,,Scattered Clouds,60,2014-02-21 01:00:00
10:00 PM,78.8,71.6,78,29.92,6.2,ENE,16.1,-,N/A,,Scattered Clouds,60,2014-02-21 02:00:00